Casitas Lake Weather Center

Moon Phase Calendar



Casitas Lake Water Level
Online Cameras

 


      

Current Conditions in Oak View
6/14/2024 1:32:15 AM

57°F
Feels Like 56
Clear
Humidity
91%
Pressure
29.94"
Wind
2.5 mph (WNW)
Dew Point
54°F
UV Index
0/10 (Low)
Visibility
6 mi

Hourly Forecast

Date & Time Fri, Jun 14
1:00 AM
Fri, Jun 14
2:00 AM
Fri, Jun 14
3:00 AM
Fri, Jun 14
4:00 AM
Fri, Jun 14
5:00 AM
Fri, Jun 14
6:00 AM
Fri, Jun 14
7:00 AM
Fri, Jun 14
8:00 AM
Fri, Jun 14
9:00 AM
Fri, Jun 14
10:00 AM
Fri, Jun 14
11:00 AM
Fri, Jun 14
12:00 PM
Fri, Jun 14
1:00 PM
Fri, Jun 14
2:00 PM
Fri, Jun 14
3:00 PM
Fri, Jun 14
4:00 PM
Fri, Jun 14
5:00 PM
Fri, Jun 14
6:00 PM
Fri, Jun 14
7:00 PM
Fri, Jun 14
8:00 PM
Fri, Jun 14
9:00 PM
Fri, Jun 14
10:00 PM
Fri, Jun 14
11:00 PM
Sat, Jun 15
12:00 AM
Sat, Jun 15
1:00 AM
Sat, Jun 15
2:00 AM
Sat, Jun 15
3:00 AM
Sat, Jun 15
4:00 AM
Sat, Jun 15
5:00 AM
Sat, Jun 15
6:00 AM
Sat, Jun 15
7:00 AM
Sat, Jun 15
8:00 AM
Sat, Jun 15
9:00 AM
Sat, Jun 15
10:00 AM
Sat, Jun 15
11:00 AM
Sat, Jun 15
12:00 PM
Sat, Jun 15
1:00 PM
Sat, Jun 15
2:00 PM
Sat, Jun 15
3:00 PM
Sat, Jun 15
4:00 PM
Sat, Jun 15
5:00 PM
Sat, Jun 15
6:00 PM
Sat, Jun 15
7:00 PM
Sat, Jun 15
8:00 PM
Sat, Jun 15
9:00 PM
Sat, Jun 15
10:00 PM
Sat, Jun 15
11:00 PM
Sun, Jun 16
12:00 AM
Condition
Clear

Clear

Clear

Clear

Clear

Clear

Clear

Clear

Clear

Clear

Clear

Clouds

Clouds

Clouds

Clouds

Clouds

Clouds

Clear

Clear

Clear

Clouds

Clouds

Clouds

Clear

Clear

Clear

Clear

Clear

Clear

Clear

Clear

Clear

Clear

Clear

Clear

Clouds

Clouds

Clear

Clouds

Clouds

Clouds

Clouds

Clouds

Clouds

Clear

Clear

Clear

Clear
Temperature 59°F57°F59°F60°F62°F64°F68°F75°F78°F80°F81°F82°F82°F82°F83°F84°F83°F83°F80°F76°F74°F73°F72°F72°F71°F69°F67°F67°F67°F67°F70°F76°F80°F82°F84°F85°F86°F85°F85°F85°F84°F84°F81°F75°F73°F71°F70°F69°F
Feels Like 58°F56°F58°F60°F61°F63°F68°F74°F78°F80°F82°F82°F83°F83°F83°F84°F83°F82°F80°F75°F73°F72°F71°F71°F70°F68°F66°F65°F65°F66°F68°F75°F80°F82°F83°F84°F84°F84°F84°F84°F83°F82°F80°F74°F71°F70°F68°F67°F
Cloudiness 6%6%6%5%4%1%0%0%0%1%1%29%38%47%42%38%37%0%10%7%17%14%12%0%0%0%0%0%0%0%0%0%0%0%2%17%14%9%12%13%14%19%19%13%9%8%6%0%
Visibility 6 mi6 mi6 mi6 mi6 mi6 mi6 mi6 mi6 mi6 mi6 mi6 mi6 mi6 mi6 mi6 mi6 mi6 mi6 mi6 mi6 mi6 mi6 mi6 mi6 mi6 mi6 mi6 mi6 mi6 mi6 mi6 mi6 mi6 mi6 mi6 mi6 mi6 mi6 mi6 mi6 mi6 mi6 mi6 mi6 mi6 mi6 mi6 mi
Precipitation 0%0%0%0%0%0%0%0%0%0%0%0%0%0%0%0%0%0%0%0%0%0%0%0%0%0%0%0%0%0%0%0%0%0%0%0%0%0%0%0%0%0%0%0%0%0%0%0%
Humidity 86%91%85%81%76%71%63%54%50%48%48%47%46%46%46%45%44%43%46%46%44%44%44%45%46%48%50%49%46%45%44%40%38%38%37%36%33%36%37%37%38%36%36%36%36%36%38%39%
Dew Point 54°F54°F54°F54°F54°F54°F52°F52°F51°F51°F51°F51°F51°F51°F50°F49°F49°F48°F50°F47°F45°F44°F44°F44°F43°F43°F43°F42°F41°F40°F41°F41°F40°F40°F40°F40°F41°F43°F43°F43°F43°F41°F43°F40°F37°F36°F35°F34°F
Pressure 29.94"29.94"29.94"29.94"29.94"29.94"29.94"29.94"29.94"29.91"29.91"29.91"29.91"29.91"29.88"29.85"29.85"29.83"29.83"29.83"29.85"29.88"29.88"29.85"29.85"29.85"29.85"29.85"29.83"29.85"29.85"29.83"29.83"29.8"29.8"29.77"29.77"29.74"29.74"29.71"29.68"29.68"29.68"29.71"29.74"29.77"29.77"29.77"
Wind Speed 3.1 mph2.5 mph3.5 mph2.2 mph3.8 mph3.3 mph2.3 mph2.1 mph4.3 mph6.4 mph7 mph8.1 mph7.4 mph9.1 mph8.6 mph8.9 mph6.9 mph5.4 mph2.6 mph3.2 mph4.1 mph4.4 mph4.2 mph4.8 mph4.1 mph4.2 mph5.1 mph5.7 mph6 mph6 mph4.7 mph2.7 mph3.1 mph5.7 mph6.4 mph7.2 mph8.9 mph11.2 mph11 mph10.6 mph8.3 mph5.4 mph2.2 mph2 mph3.8 mph3.5 mph3.1 mph3.6 mph
Wind
Direction
331°
NNW
296°
WNW
26°
NNE
330°
NNW

N

N

N
235°
SW
210°
SSW
214°
SW
214°
SW
208°
SSW
211°
SSW
221°
SW
227°
SW
229°
SW
243°
WSW
254°
WSW
263°
W

N

N
346°
NNW
333°
NNW
351°
N
344°
NNW
354°
N
350°
N
352°
N
353°
N
344°
NNW
346°
NNW
309°
NW
259°
W
239°
WSW
234°
SW
227°
SW
220°
SW
217°
SW
214°
SW
218°
SW
222°
SW
232°
SW
220°
SW
25°
NNE
20°
NNE
17°
NNE
353°
N
340°
NNW

Daily Forecast

Date High Low Precip. Humidity
Today
Jun 14

Clouds
84 °F
57 °F
0%
47%
Saturday
Jun 15

Clouds
86 °F
67 °F
0%
36%
Sunday
Jun 16

Clouds
80 °F
64 °F
0%
41%
Monday
Jun 17

Clear
78 °F
64 °F
0%
47%
Tuesday
Jun 18

Clear
80 °F
60 °F
0%
42%
Wednesday
Jun 19

Clear
79 °F
65 °F
0%
43%
Thursday
Jun 20

Clear
83 °F
68 °F
0%
37%
Friday
Jun 21

Clear
84 °F
71 °F
0%
38%
Saturday
Jun 22

Clear
82 °F
68 °F
0%
41%
Sunday
Jun 23

Clear
81 °F
67 °F
0%
45%
Monday
Jun 24

Clear
81 °F
67 °F
0%
44%
Tuesday
Jun 25

Clouds
79 °F
68 °F
0%
50%
Wednesday
Jun 26

Clouds
81 °F
67 °F
0%
43%
Thursday
Jun 27

Clouds
80 °F
66 °F
0%
45%
Friday
Jun 28

Clouds
76 °F
65 °F
0%
51%
Saturday
Jun 29

Clear
74 °F
63 °F
0%
53%

Temperature 8-14 Day Outlook



Precipitation 8-14 Day Outlook






About Us
Contact Us
Site Map
Search Site
Advertise With Us
   
Casitas.USLakes.info
THE CASITAS LAKE WEBSITE

Copyright 2024, Lakes Online
Privacy    |    Legal